Time,TemperatureF,DewpointF,PressureIn,WindDirection,WindDirectionDegrees,WindSpeedMPH,WindSpeedGustMPH,Humidity,HourlyPrecipIn,Conditions,Clouds,dailyrainin,SoftwareType,DateUTC
2013-02-28 00:03:00,30.9,-99.9,29.50,West,270,3.0,-999.0,-999,-99.99,,,-99.99,,2013-02-28 00:03:00,
2013-02-28 00:09:00,30.8,-99.9,29.50,NW,315,4.0,-999.0,-999,-99.99,,,-99.99,,2013-02-28 00:09:00,
2013-02-28 00:15:00,31.0,-99.9,29.50,NW,315,2.0,-999.0,-999,-99.99,,,-99.99,,2013-02-28 00:15:00,
2013-02-28 00:21:00,31.2,-99.9,29.50,NNW,337,4.0,-999.0,-999,-99.99,,,-99.99,,2013-02-28 00:21:00,
2013-02-28 00:28:00,31.4,-99.9,29.50,North,0,4.0,-999.0,-999,-99.99,,,-99.99,,2013-02-28 00:28:00,
2013-02-28 00:34:00,31.3,-99.9,29.50,NNW,337,5.0,-999.0,-999,-99.99,,,-99.99,,2013-02-28 00:34:00,
2013-02-28 00:40:00,30.9,-99.9,29.49,WNW,292,8.0,-999.0,-999,-99.99,,,-99.99,,2013-02-28 00:40:00,
2013-02-28 00:46:00,30.5,-99.9,29.49,WNW,292,6.0,-999.0,-999,-99.99,,,-99.99,,2013-02-28 00:46:00,
2013-02-28 00:53:00,31.1,-99.9,29.49,WNW,292,6.0,-999.0,-999,-99.99,,,-99.99,,2013-02-28 00:53:00,
2013-02-28 00:59:00,31.4,-99.9,29.49,WNW,292,5.0,-999.0,-999,-99.99,,,-99.99,,2013-02-28 00:59:00,
2013-02-28 01:05:00,31.4,-99.9,29.49,NNW,337,4.0,-999.0,-999,-99.99,,,-99.99,,2013-02-28 01:05:00,
2013-02-28 01:11:00,31.1,-99.9,29.49,WNW,292,5.0,-999.0,-999,-99.99,,,-99.99,,2013-02-28 01:11:00,
2013-02-28 01:17:00,30.5,-99.9,29.49,SW,225,4.0,-999.0,-999,-99.99,,,-99.99,,2013-02-28 01:17:00,
2013-02-28 01:24:00,30.0,-99.9,29.49,NNW,337,5.0,-999.0,-999,-99.99,,,-99.99,,2013-02-28 01:24:00,
2013-02-28 01:30:00,30.0,-99.9,29.49,NNE,22,6.0,-999.0,-999,-99.99,,,-99.99,,2013-02-28 01:30:00,
2013-02-28 01:36:00,29.8,-99.9,29.49,NNW,337,3.0,-999.0,-999,-99.99,,,-99.99,,2013-02-28 01:36:00,
2013-02-28 01:42:00,29.4,-99.9,29.49,ENE,67,7.0,-999.0,-999,-99.99,,,-99.99,,2013-02-28 01:42:00,
2013-02-28 01:49:00,29.4,-99.9,29.49,NW,315,4.0,-999.0,-999,-99.99,,,-99.99,,2013-02-28 01:49:00,
2013-02-28 01:55:00,29.1,-99.9,29.49,WNW,292,8.0,-999.0,-999,-99.99,,,-99.99,,2013-02-28 01:55:00,
2013-02-28 02:01:00,29.2,-99.9,29.49,NNW,337,5.0,-999.0,-999,-99.99,,,-99.99,,2013-02-28 02:01:00,
2013-02-28 02:07:00,29.2,-99.9,29.48,West,270,5.0,-999.0,-999,-99.99,,,-99.99,,2013-02-28 02:07:00,
2013-02-28 02:13:00,28.9,-99.9,29.48,NNE,22,3.0,-999.0,-999,-99.99,,,-99.99,,2013-02-28 02:13:00,
2013-02-28 02:20:00,28.9,-99.9,29.48,North,0,6.0,-999.0,-999,-99.99,,,-99.99,,2013-02-28 02:20:00,
2013-02-28 02:26:00,29.3,-99.9,29.48,NNW,337,5.0,-999.0,-999,-99.99,,,-99.99,,2013-02-28 02:26:00,
2013-02-28 02:32:00,29.3,-99.9,29.48,NE,45,4.0,-999.0,-999,-99.99,,,-99.99,,2013-02-28 02:32:00,
2013-02-28 02:38:00,29.3,-99.9,29.47,NNE,22,5.0,-999.0,-999,-99.99,,,-99.99,,2013-02-28 02:38:00,
2013-02-28 02:45:00,29.4,-99.9,29.47,NW,315,4.0,-999.0,-999,-99.99,,,-99.99,,2013-02-28 02:45:00,
2013-02-28 02:51:00,29.2,-99.9,29.47,NW,315,4.0,-999.0,-999,-99.99,,,-99.99,,2013-02-28 02:51:00,
2013-02-28 02:57:00,29.0,-99.9,29.47,West,270,5.0,-999.0,-999,-99.99,,,-99.99,,2013-02-28 02:57:00,
2013-02-28 03:03:00,29.1,-99.9,29.47,NW,315,4.0,-999.0,-999,-99.99,,,-99.99,,2013-02-28 03:03:00,
2013-02-28 03:09:00,29.2,-99.9,29.47,North,0,3.0,-999.0,-999,-99.99,,,-99.99,,2013-02-28 03:09:00,
2013-02-28 03:16:00,29.3,-99.9,29.47,WNW,292,5.0,-999.0,-999,-99.99,,,-99.99,,2013-02-28 03:16:00,
2013-02-28 03:22:00,29.3,-99.9,29.47,North,0,5.0,-999.0,-999,-99.99,,,-99.99,,2013-02-28 03:22:00,
2013-02-28 03:28:00,29.1,-99.9,29.47,NW,315,3.0,-999.0,-999,-99.99,,,-99.99,,2013-02-28 03:28:00,
2013-02-28 03:34:00,29.3,-99.9,29.47,NW,315,2.0,-999.0,-999,-99.99,,,-99.99,,2013-02-28 03:34:00,
2013-02-28 03:40:00,29.6,-99.9,29.47,NNW,337,4.0,-999.0,-999,-99.99,,,-99.99,,2013-02-28 03:40:00,
2013-02-28 03:47:00,29.6,-99.9,29.47,NW,315,3.0,-999.0,-999,-99.99,,,-99.99,,2013-02-28 03:47:00,
2013-02-28 03:53:00,29.3,-99.9,29.46,WSW,247,0.0,-999.0,-999,-99.99,,,-99.99,,2013-02-28 03:53:00,
2013-02-28 03:59:00,28.7,-99.9,29.46,WSW,247,2.0,-999.0,-999,-99.99,,,-99.99,,2013-02-28 03:59:00,
2013-02-28 04:05:00,28.5,-99.9,29.46,West,270,2.0,-999.0,-999,-99.99,,,-99.99,,2013-02-28 04:05:00,
2013-02-28 04:12:00,28.1,-99.9,29.46,NNW,337,1.0,-999.0,-999,-99.99,,,-99.99,,2013-02-28 04:12:00,
2013-02-28 04:18:00,27.5,-99.9,29.46,WSW,247,3.0,-999.0,-999,-99.99,,,-99.99,,2013-02-28 04:18:00,
2013-02-28 04:24:00,-999.0,-99.9,29.46,North,-999,-999.0,-999.0,-999,-99.99,,,-99.99,,2013-02-28 04:24:00,
2013-02-28 04:31:00,26.7,-99.9,29.45,North,0,0.0,-999.0,-999,-99.99,,,-99.99,,2013-02-28 04:31:00,
2013-02-28 04:37:00,26.3,-99.9,29.45,WNW,292,0.0,-999.0,-999,-99.99,,,-99.99,,2013-02-28 04:37:00,
2013-02-28 04:43:00,26.0,-99.9,29.45,West,270,1.0,-999.0,-999,-99.99,,,-99.99,,2013-02-28 04:43:00,
2013-02-28 04:49:00,27.0,-99.9,29.45,WNW,292,4.0,-999.0,-999,-99.99,,,-99.99,,2013-02-28 04:49:00,
2013-02-28 04:56:00,27.4,-99.9,29.45,WNW,292,2.0,-999.0,-999,-99.99,,,-99.99,,2013-02-28 04:56:00,
2013-02-28 05:00:00,27.7,-99.9,29.45,North,0,4.0,-999.0,-999,-99.99,,,-99.99,,2013-02-28 05:00:00,
2013-02-28 05:02:00,27.8,-99.9,29.45,WNW,292,2.0,-999.0,-999,-99.99,,,-99.99,,2013-02-28 05:02:00,
2013-02-28 05:04:00,28.1,-99.9,29.45,WSW,247,3.0,-999.0,-999,-99.99,,,-99.99,,2013-02-28 05:04:00,
2013-02-28 05:10:00,28.0,-99.9,29.45,ENE,67,0.0,-999.0,-999,-99.99,,,-99.99,,2013-02-28 05:10:00,
2013-02-28 05:16:00,27.6,-99.9,29.45,ENE,67,0.0,-999.0,-999,-99.99,,,-99.99,,2013-02-28 05:16:00,
2013-02-28 05:21:00,27.3,-99.9,29.45,West,270,2.0,-999.0,-999,-99.99,,,-99.99,,2013-02-28 05:21:00,
2013-02-28 05:27:00,26.9,-99.9,29.45,West,270,3.0,-999.0,-999,-99.99,,,-99.99,,2013-02-28 05:27:00,
2013-02-28 05:33:00,27.0,-99.9,29.45,NNW,337,6.0,-999.0,-999,-99.99,,,-99.99,,2013-02-28 05:33:00,
2013-02-28 05:39:00,27.4,-99.9,29.45,West,270,2.0,-999.0,-999,-99.99,,,-99.99,,2013-02-28 05:39:00,
2013-02-28 05:45:00,27.8,-99.9,29.45,WSW,247,5.0,-999.0,-999,-99.99,,,-99.99,,2013-02-28 05:45:00,
2013-02-28 05:52:00,28.3,-99.9,29.45,NNW,337,5.0,-999.0,-999,-99.99,,,-99.99,,2013-02-28 05:52:00,
2013-02-28 05:58:00,28.4,-99.9,29.45,West,270,3.0,-999.0,-999,-99.99,,,-99.99,,2013-02-28 05:58:00,
2013-02-28 06:04:00,28.3,-99.9,29.45,West,270,1.0,-999.0,-999,-99.99,,,-99.99,,2013-02-28 06:04:00,
2013-02-28 06:10:00,28.0,-99.9,29.45,West,270,2.0,-999.0,-999,-99.99,,,-99.99,,2013-02-28 06:10:00,
2013-02-28 06:17:00,27.6,-99.9,29.45,West,270,5.0,-999.0,-999,-99.99,,,-99.99,,2013-02-28 06:17:00,
2013-02-28 06:23:00,27.7,-99.9,29.45,WNW,292,5.0,-999.0,-999,-99.99,,,-99.99,,2013-02-28 06:23:00,
2013-02-28 06:29:00,27.7,-99.9,29.46,West,270,3.0,-999.0,-999,-99.99,,,-99.99,,2013-02-28 06:29:00,
2013-02-28 06:36:00,27.5,-99.9,29.46,WSW,247,1.0,-999.0,-999,-99.99,,,-99.99,,2013-02-28 06:36:00,
2013-02-28 06:42:00,27.6,-99.9,29.46,North,0,0.0,-999.0,-999,-99.99,,,-99.99,,2013-02-28 06:42:00,
2013-02-28 06:48:00,27.3,-99.9,29.46,WNW,292,2.0,-999.0,-999,-99.99,,,-99.99,,2013-02-28 06:48:00,
2013-02-28 06:54:00,27.4,-99.9,29.46,SSE,157,1.0,-999.0,-999,-99.99,,,-99.99,,2013-02-28 06:54:00,
2013-02-28 07:00:00,27.4,-99.9,29.46,SW,225,0.0,-999.0,-999,-99.99,,,-99.99,,2013-02-28 07:00:00,
2013-02-28 07:07:00,27.3,-99.9,29.46,NNW,337,0.0,-999.0,-999,-99.99,,,-99.99,,2013-02-28 07:07:00,
2013-02-28 07:13:00,27.2,-99.9,29.46,SE,135,1.0,-999.0,-999,-99.99,,,-99.99,,2013-02-28 07:13:00,
2013-02-28 07:19:00,27.5,-99.9,29.46,NNE,22,0.0,-999.0,-999,-99.99,,,-99.99,,2013-02-28 07:19:00,
2013-02-28 07:25:00,27.3,-99.9,29.47,North,-999,0.0,-999.0,-999,-99.99,,,-99.99,,2013-02-28 07:25:00,
2013-02-28 07:32:00,26.9,-99.9,29.46,West,270,0.0,-999.0,-999,-99.99,,,-99.99,,2013-02-28 07:32:00,
2013-02-28 07:38:00,26.9,-99.9,29.47,WSW,247,0.0,-999.0,-999,-99.99,,,-99.99,,2013-02-28 07:38:00,
2013-02-28 07:44:00,26.7,-99.9,29.47,NNE,22,1.0,-999.0,-999,-99.99,,,-99.99,,2013-02-28 07:44:00,
2013-02-28 07:50:00,26.7,-99.9,29.47,NNW,337,0.0,-999.0,-999,-99.99,,,-99.99,,2013-02-28 07:50:00,
2013-02-28 07:57:00,27.0,-99.9,29.47,East,90,0.0,-999.0,-999,-99.99,,,-99.99,,2013-02-28 07:57:00,
2013-02-28 08:03:00,27.4,-99.9,29.47,ENE,67,0.0,-999.0,-999,-99.99,,,-99.99,,2013-02-28 08:03:00,
2013-02-28 08:09:00,27.6,-99.9,29.47,West,270,0.0,-999.0,-999,-99.99,,,-99.99,,2013-02-28 08:09:00,
2013-02-28 08:15:00,28.3,-99.9,29.47,West,270,1.0,-999.0,-999,-99.99,,,-99.99,,2013-02-28 08:15:00,
2013-02-28 08:22:00,29.2,-99.9,29.47,NNW,337,1.0,-999.0,-999,-99.99,,,-99.99,,2013-02-28 08:22:00,
2013-02-28 08:28:00,31.2,-99.9,29.47,West,270,2.0,-999.0,-999,-99.99,,,-99.99,,2013-02-28 08:28:00,
2013-02-28 08:34:00,32.8,-99.9,29.47,WSW,247,2.0,-999.0,-999,-99.99,,,-99.99,,2013-02-28 08:34:00,
2013-02-28 08:40:00,33.6,-99.9,29.47,SW,225,2.0,-999.0,-999,-99.99,,,-99.99,,2013-02-28 08:40:00,
2013-02-28 08:47:00,33.9,-99.9,29.47,West,270,1.0,-999.0,-999,-99.99,,,-99.99,,2013-02-28 08:47:00,
2013-02-28 08:53:00,35.4,-99.9,29.47,West,270,3.0,-999.0,-999,-99.99,,,-99.99,,2013-02-28 08:53:00,
2013-02-28 08:59:00,36.8,-99.9,29.47,West,270,2.0,-999.0,-999,-99.99,,,-99.99,,2013-02-28 08:59:00,
2013-02-28 09:05:00,37.5,-99.9,29.47,WSW,247,3.0,-999.0,-999,-99.99,,,-99.99,,2013-02-28 09:05:00,
2013-02-28 09:12:00,36.7,-99.9,29.47,SW,225,3.0,-999.0,-999,-99.99,,,-99.99,,2013-02-28 09:12:00,
2013-02-28 09:18:00,36.3,-99.9,29.47,WSW,247,2.0,-999.0,-999,-99.99,,,-99.99,,2013-02-28 09:18:00,
2013-02-28 09:24:00,36.4,-99.9,29.47,WSW,247,1.0,-999.0,-999,-99.99,,,-99.99,,2013-02-28 09:24:00,
2013-02-28 09:30:00,-999.0,-99.9,29.47,West,270,2.0,-999.0,-999,-99.99,,,-99.99,,2013-02-28 09:30:00,
2013-02-28 09:37:00,37.5,-99.9,29.47,West,270,4.0,-999.0,-999,-99.99,,,-99.99,,2013-02-28 09:37:00,
2013-02-28 09:43:00,37.5,-99.9,29.47,SW,225,3.0,-999.0,-999,-99.99,,,-99.99,,2013-02-28 09:43:00,
2013-02-28 09:49:00,38.0,-99.9,29.47,SW,225,4.0,-999.0,-999,-99.99,,,-99.99,,2013-02-28 09:49:00,
2013-02-28 09:55:00,37.8,-99.9,29.47,WSW,247,4.0,-999.0,-999,-99.99,,,-99.99,,2013-02-28 09:55:00,
2013-02-28 10:02:00,38.1,-99.9,29.47,SW,225,4.0,-999.0,-999,-99.99,,,-99.99,,2013-02-28 10:02:00,
2013-02-28 10:08:00,38.6,-99.9,29.47,SW,225,4.0,-999.0,-999,-99.99,,,-99.99,,2013-02-28 10:08:00,
2013-02-28 10:14:00,38.9,-99.9,29.47,WSW,247,5.0,-999.0,-999,-99.99,,,-99.99,,2013-02-28 10:14:00,
2013-02-28 10:20:00,39.1,-99.9,29.47,West,270,3.0,-999.0,-999,-99.99,,,-99.99,,2013-02-28 10:20:00,
2013-02-28 10:27:00,39.5,-99.9,29.47,SW,225,3.0,-999.0,-999,-99.99,,,-99.99,,2013-02-28 10:27:00,
2013-02-28 10:33:00,40.1,-99.9,29.47,WSW,247,3.0,-999.0,-999,-99.99,,,-99.99,,2013-02-28 10:33:00,
2013-02-28 10:39:00,40.8,-99.9,29.47,West,270,3.0,-999.0,-999,-99.99,,,-99.99,,2013-02-28 10:39:00,
2013-02-28 10:45:00,42.1,-99.9,29.47,WSW,247,4.0,-999.0,-999,-99.99,,,-99.99,,2013-02-28 10:45:00,
2013-02-28 10:52:00,42.1,-99.9,29.47,SW,225,7.0,-999.0,-999,-99.99,,,-99.99,,2013-02-28 10:52:00,
2013-02-28 10:58:00,41.6,-99.9,29.47,WSW,247,5.0,-999.0,-999,-99.99,,,-99.99,,2013-02-28 10:58:00,
2013-02-28 11:04:00,41.7,-99.9,29.47,SW,225,5.0,-999.0,-999,-99.99,,,-99.99,,2013-02-28 11:04:00,
2013-02-28 11:10:00,42.7,-99.9,29.47,SW,225,3.0,-999.0,-999,-99.99,,,-99.99,,2013-02-28 11:10:00,
2013-02-28 11:17:00,42.9,-99.9,29.47,WSW,247,5.0,-999.0,-999,-99.99,,,-99.99,,2013-02-28 11:17:00,
2013-02-28 11:23:00,43.6,-99.9,29.47,WSW,247,2.0,-999.0,-999,-99.99,,,-99.99,,2013-02-28 11:23:00,
2013-02-28 11:29:00,44.3,-99.9,29.47,West,270,3.0,-999.0,-999,-99.99,,,-99.99,,2013-02-28 11:29:00,
2013-02-28 11:36:00,44.5,-99.9,29.47,West,270,3.0,-999.0,-999,-99.99,,,-99.99,,2013-02-28 11:36:00,
2013-02-28 11:42:00,45.0,-99.9,29.46,SW,225,3.0,-999.0,-999,-99.99,,,-99.99,,2013-02-28 11:42:00,
2013-02-28 11:48:00,45.5,-99.9,29.46,WSW,247,2.0,-999.0,-999,-99.99,,,-99.99,,2013-02-28 11:48:00,
2013-02-28 11:55:00,47.6,-99.9,29.46,SSE,157,4.0,-999.0,-999,-99.99,,,-99.99,,2013-02-28 11:55:00,
2013-02-28 12:01:00,49.9,-99.9,29.46,West,270,5.0,-999.0,-999,-99.99,,,-99.99,,2013-02-28 12:01:00,
2013-02-28 12:07:00,50.7,-99.9,29.46,WSW,247,4.0,-999.0,-999,-99.99,,,-99.99,,2013-02-28 12:07:00,
2013-02-28 12:13:00,51.0,-99.9,29.46,SW,225,6.0,-999.0,-999,-99.99,,,-99.99,,2013-02-28 12:13:00,
2013-02-28 12:19:00,52.6,-99.9,29.45,WSW,247,5.0,-999.0,-999,-99.99,,,-99.99,,2013-02-28 12:19:00,
2013-02-28 12:26:00,53.4,-99.9,29.45,SW,225,4.0,-999.0,-999,-99.99,,,-99.99,,2013-02-28 12:26:00,
2013-02-28 12:32:00,54.0,-99.9,29.45,West,270,4.0,-999.0,-999,-99.99,,,-99.99,,2013-02-28 12:32:00,
2013-02-28 12:38:00,54.7,-99.9,29.45,SSW,202,5.0,-999.0,-999,-99.99,,,-99.99,,2013-02-28 12:38:00,
2013-02-28 12:44:00,55.4,-99.9,29.45,WSW,247,5.0,-999.0,-999,-99.99,,,-99.99,,2013-02-28 12:44:00,
2013-02-28 12:51:00,56.0,-99.9,29.45,WSW,247,3.0,-999.0,-999,-99.99,,,-99.99,,2013-02-28 12:51:00,
2013-02-28 12:57:00,57.3,-99.9,29.45,SW,225,3.0,-999.0,-999,-99.99,,,-99.99,,2013-02-28 12:57:00,
2013-02-28 13:03:00,58.2,-99.9,29.45,WSW,247,1.0,-999.0,-999,-99.99,,,-99.99,,2013-02-28 13:03:00,
2013-02-28 13:10:00,59.2,-99.9,29.44,SW,225,3.0,-999.0,-999,-99.99,,,-99.99,,2013-02-28 13:10:00,
2013-02-28 13:16:00,60.0,-99.9,29.44,WSW,247,3.0,-999.0,-999,-99.99,,,-99.99,,2013-02-28 13:16:00,
2013-02-28 13:22:00,60.3,-99.9,29.44,SSW,202,3.0,-999.0,-999,-99.99,,,-99.99,,2013-02-28 13:22:00,
2013-02-28 13:28:00,60.3,-99.9,29.44,WSW,247,5.0,-999.0,-999,-99.99,,,-99.99,,2013-02-28 13:28:00,
2013-02-28 13:35:00,58.2,-99.9,29.44,West,270,7.0,-999.0,-999,-99.99,,,-99.99,,2013-02-28 13:35:00,
2013-02-28 13:41:00,56.5,-99.9,29.44,ESE,112,7.0,-999.0,-999,-99.99,,,-99.99,,2013-02-28 13:41:00,
2013-02-28 13:47:00,56.9,-99.9,29.44,ESE,112,7.0,-999.0,-999,-99.99,,,-99.99,,2013-02-28 13:47:00,
2013-02-28 13:53:00,56.9,-99.9,29.44,SW,225,9.0,-999.0,-999,-99.99,,,-99.99,,2013-02-28 13:53:00,
2013-02-28 14:00:00,57.1,-99.9,29.44,SSW,202,8.0,-999.0,-999,-99.99,,,-99.99,,2013-02-28 14:00:00,
2013-02-28 14:06:00,54.3,-99.9,29.44,WSW,247,4.0,-999.0,-999,-99.99,,,-99.99,,2013-02-28 14:06:00,
2013-02-28 14:12:00,55.3,-99.9,29.45,SSE,157,10.0,-999.0,-999,-99.99,,,-99.99,,2013-02-28 14:12:00,
2013-02-28 14:18:00,55.2,-99.9,29.45,SSW,202,8.0,-999.0,-999,-99.99,,,-99.99,,2013-02-28 14:18:00,
2013-02-28 14:24:00,55.8,-99.9,29.44,ENE,67,7.0,-999.0,-999,-99.99,,,-99.99,,2013-02-28 14:24:00,
2013-02-28 14:31:00,56.0,-99.9,29.44,SSE,157,3.0,-999.0,-999,-99.99,,,-99.99,,2013-02-28 14:31:00,
2013-02-28 14:37:00,57.0,-99.9,29.44,West,270,5.0,-999.0,-999,-99.99,,,-99.99,,2013-02-28 14:37:00,
2013-02-28 14:43:00,56.9,-99.9,29.44,South,180,8.0,-999.0,-999,-99.99,,,-99.99,,2013-02-28 14:43:00,
2013-02-28 14:49:00,56.3,-99.9,29.44,South,180,8.0,-999.0,-999,-99.99,,,-99.99,,2013-02-28 14:49:00,
2013-02-28 14:56:00,55.4,-99.9,29.44,ESE,112,5.0,-999.0,-999,-99.99,,,-99.99,,2013-02-28 14:56:00,
2013-02-28 15:02:00,56.2,-99.9,29.44,East,90,5.0,-999.0,-999,-99.99,,,-99.99,,2013-02-28 15:02:00,
2013-02-28 15:08:00,54.6,-99.9,29.44,SSE,157,4.0,-999.0,-999,-99.99,,,-99.99,,2013-02-28 15:08:00,
2013-02-28 15:14:00,52.7,-99.9,29.44,WSW,247,7.0,-999.0,-999,-99.99,,,-99.99,,2013-02-28 15:14:00,
2013-02-28 15:21:00,51.1,-99.9,29.43,North,-999,1.0,-999.0,-999,-99.99,,,-99.99,,2013-02-28 15:21:00,
2013-02-28 15:27:00,51.1,-99.9,29.43,WSW,247,5.0,-999.0,-999,-99.99,,,-99.99,,2013-02-28 15:27:00,
2013-02-28 15:33:00,51.2,-99.9,29.43,SW,225,3.0,-999.0,-999,-99.99,,,-99.99,,2013-02-28 15:33:00,
2013-02-28 15:40:00,51.0,-99.9,29.44,ESE,112,1.0,-999.0,-999,-99.99,,,-99.99,,2013-02-28 15:40:00,
2013-02-28 15:46:00,50.6,-99.9,29.43,SE,135,1.0,-999.0,-999,-99.99,,,-99.99,,2013-02-28 15:46:00,
2013-02-28 15:52:00,49.8,-99.9,29.44,North,-999,4.0,-999.0,-999,-99.99,,,-99.99,,2013-02-28 15:52:00,
2013-02-28 15:58:00,49.0,-99.9,29.43,SSE,157,2.0,-999.0,-999,-99.99,,,-99.99,,2013-02-28 15:58:00,
2013-02-28 16:05:00,48.5,-99.9,29.43,SW,225,4.0,-999.0,-999,-99.99,,,-99.99,,2013-02-28 16:05:00,
2013-02-28 16:11:00,48.0,-99.9,29.43,SSE,157,3.0,-999.0,-999,-99.99,,,-99.99,,2013-02-28 16:11:00,
2013-02-28 16:17:00,47.4,-99.9,29.43,South,180,1.0,-999.0,-999,-99.99,,,-99.99,,2013-02-28 16:17:00,
2013-02-28 16:24:00,47.2,-99.9,29.43,South,180,2.0,-999.0,-999,-99.99,,,-99.99,,2013-02-28 16:24:00,
2013-02-28 16:30:00,47.0,-99.9,29.44,SSW,202,2.0,-999.0,-999,-99.99,,,-99.99,,2013-02-28 16:30:00,
2013-02-28 16:36:00,46.6,-99.9,29.43,SSW,202,1.0,-999.0,-999,-99.99,,,-99.99,,2013-02-28 16:36:00,
2013-02-28 16:42:00,46.3,-99.9,29.43,East,90,0.0,-999.0,-999,-99.99,,,-99.99,,2013-02-28 16:42:00,
2013-02-28 16:48:00,46.2,-99.9,29.43,SE,135,1.0,-999.0,-999,-99.99,,,-99.99,,2013-02-28 16:48:00,
2013-02-28 16:55:00,46.0,-99.9,29.43,SE,135,0.0,-999.0,-999,-99.99,,,-99.99,,2013-02-28 16:55:00,
2013-02-28 17:01:00,45.8,-99.9,29.43,ENE,67,0.0,-999.0,-999,-99.99,,,-99.99,,2013-02-28 17:01:00,
2013-02-28 17:07:00,45.7,-99.9,29.42,NNE,22,0.0,-999.0,-999,-99.99,,,-99.99,,2013-02-28 17:07:00,
2013-02-28 17:13:00,45.5,-99.9,29.43,ENE,67,0.0,-999.0,-999,-99.99,,,-99.99,,2013-02-28 17:13:00,
2013-02-28 17:20:00,45.3,-99.9,29.42,ENE,67,0.0,-999.0,-999,-99.99,,,-99.99,,2013-02-28 17:20:00,
2013-02-28 17:26:00,44.9,-99.9,29.43,ENE,67,3.0,-999.0,-999,-99.99,,,-99.99,,2013-02-28 17:26:00,
2013-02-28 17:32:00,44.7,-99.9,29.43,NE,45,3.0,-999.0,-999,-99.99,,,-99.99,,2013-02-28 17:32:00,
2013-02-28 17:38:00,44.5,-99.9,29.43,ENE,67,1.0,-999.0,-999,-99.99,,,-99.99,,2013-02-28 17:38:00,
2013-02-28 17:45:00,44.4,-99.9,29.43,North,0,2.0,-999.0,-999,-99.99,,,-99.99,,2013-02-28 17:45:00,
2013-02-28 17:51:00,44.2,-99.9,29.43,NE,45,2.0,-999.0,-999,-99.99,,,-99.99,,2013-02-28 17:51:00,
2013-02-28 17:57:00,43.9,-99.9,29.43,NNE,22,1.0,-999.0,-999,-99.99,,,-99.99,,2013-02-28 17:57:00,
2013-02-28 18:03:00,43.6,-99.9,29.43,NNE,22,0.0,-999.0,-999,-99.99,,,-99.99,,2013-02-28 18:03:00,
2013-02-28 18:10:00,43.4,-99.9,29.43,North,0,0.0,-999.0,-999,-99.99,,,-99.99,,2013-02-28 18:10:00,
2013-02-28 18:16:00,43.4,-99.9,29.43,ENE,67,1.0,-999.0,-999,-99.99,,,-99.99,,2013-02-28 18:16:00,
2013-02-28 18:22:00,43.4,-99.9,29.43,North,0,1.0,-999.0,-999,-99.99,,,-99.99,,2013-02-28 18:22:00,
2013-02-28 18:28:00,43.2,-99.9,29.43,NNE,22,1.0,-999.0,-999,-99.99,,,-99.99,,2013-02-28 18:28:00,
2013-02-28 18:35:00,43.1,-99.9,29.43,NNW,337,1.0,-999.0,-999,-99.99,,,-99.99,,2013-02-28 18:35:00,
2013-02-28 18:41:00,42.9,-99.9,29.43,North,0,0.0,-999.0,-999,-99.99,,,-99.99,,2013-02-28 18:41:00,
2013-02-28 18:47:00,43.0,-99.9,29.43,NE,45,1.0,-999.0,-999,-99.99,,,-99.99,,2013-02-28 18:47:00,
2013-02-28 18:53:00,43.0,-99.9,29.43,NE,45,1.0,-999.0,-999,-99.99,,,-99.99,,2013-02-28 18:53:00,
2013-02-28 19:00:00,42.9,-99.9,29.44,NE,45,2.0,-999.0,-999,-99.99,,,-99.99,,2013-02-28 19:00:00,
2013-02-28 19:06:00,42.9,-99.9,29.43,ENE,67,3.0,-999.0,-999,-99.99,,,-99.99,,2013-02-28 19:06:00,
2013-02-28 19:12:00,42.7,-99.9,29.43,East,90,3.0,-999.0,-999,-99.99,,,-99.99,,2013-02-28 19:12:00,
2013-02-28 19:18:00,42.5,-99.9,29.43,North,-999,1.0,-999.0,-999,-99.99,,,-99.99,,2013-02-28 19:18:00,
2013-02-28 19:25:00,42.3,-99.9,29.43,ENE,67,2.0,-999.0,-999,-99.99,,,-99.99,,2013-02-28 19:25:00,
2013-02-28 19:31:00,42.1,-99.9,29.43,ENE,67,3.0,-999.0,-999,-99.99,,,-99.99,,2013-02-28 19:31:00,
2013-02-28 19:37:00,42.0,-99.9,29.44,ESE,112,2.0,-999.0,-999,-99.99,,,-99.99,,2013-02-28 19:37:00,
2013-02-28 19:43:00,41.8,-99.9,29.44,SSW,202,4.0,-999.0,-999,-99.99,,,-99.99,,2013-02-28 19:43:00,
2013-02-28 19:50:00,41.7,-99.9,29.44,NE,45,2.0,-999.0,-999,-99.99,,,-99.99,,2013-02-28 19:50:00,
2013-02-28 19:56:00,41.5,-99.9,29.44,NNE,22,2.0,-999.0,-999,-99.99,,,-99.99,,2013-02-28 19:56:00,
2013-02-28 20:02:00,41.3,-99.9,29.44,NE,45,2.0,-999.0,-999,-99.99,,,-99.99,,2013-02-28 20:02:00,
2013-02-28 20:08:00,41.1,-99.9,29.44,ESE,112,3.0,-999.0,-999,-99.99,,,-99.99,,2013-02-28 20:08:00,
2013-02-28 20:15:00,40.9,-99.9,29.44,SSW,202,2.0,-999.0,-999,-99.99,,,-99.99,,2013-02-28 20:15:00,
2013-02-28 20:21:00,40.7,-99.9,29.44,SSW,202,2.0,-999.0,-999,-99.99,,,-99.99,,2013-02-28 20:21:00,
2013-02-28 20:27:00,40.4,-99.9,29.44,South,180,4.0,-999.0,-999,-99.99,,,-99.99,,2013-02-28 20:27:00,
2013-02-28 20:33:00,40.2,-99.9,29.44,SE,135,0.0,-999.0,-999,-99.99,,,-99.99,,2013-02-28 20:33:00,
2013-02-28 20:40:00,39.9,-99.9,29.44,WSW,247,0.0,-999.0,-999,-99.99,,,-99.99,,2013-02-28 20:40:00,
2013-02-28 20:46:00,39.7,-99.9,29.45,ENE,67,2.0,-999.0,-999,-99.99,,,-99.99,,2013-02-28 20:46:00,
2013-02-28 20:52:00,39.4,-99.9,29.45,ENE,67,0.0,-999.0,-999,-99.99,,,-99.99,,2013-02-28 20:52:00,
2013-02-28 20:58:00,39.3,-99.9,29.45,NNE,22,3.0,-999.0,-999,-99.99,,,-99.99,,2013-02-28 20:58:00,
2013-02-28 21:04:00,39.4,-99.9,29.45,NE,45,0.0,-999.0,-999,-99.99,,,-99.99,,2013-02-28 21:04:00,
2013-02-28 21:11:00,39.4,-99.9,29.45,North,0,0.0,-999.0,-999,-99.99,,,-99.99,,2013-02-28 21:11:00,
2013-02-28 21:17:00,39.5,-99.9,29.45,ENE,67,1.0,-999.0,-999,-99.99,,,-99.99,,2013-02-28 21:17:00,
2013-02-28 21:23:00,39.8,-99.9,29.45,North,-999,0.0,-999.0,-999,-99.99,,,-99.99,,2013-02-28 21:23:00,
2013-02-28 21:29:00,39.8,-99.9,29.45,ENE,67,0.0,-999.0,-999,-99.99,,,-99.99,,2013-02-28 21:29:00,
2013-02-28 21:36:00,39.9,-99.9,29.45,ENE,67,0.0,-999.0,-999,-99.99,,,-99.99,,2013-02-28 21:36:00,
2013-02-28 21:42:00,39.9,-99.9,29.45,NNE,22,0.0,-999.0,-999,-99.99,,,-99.99,,2013-02-28 21:42:00,
2013-02-28 21:48:00,39.8,-99.9,29.45,NNE,22,0.0,-999.0,-999,-99.99,,,-99.99,,2013-02-28 21:48:00,
2013-02-28 21:54:00,39.9,-99.9,29.45,ENE,67,0.0,-999.0,-999,-99.99,,,-99.99,,2013-02-28 21:54:00,
2013-02-28 22:01:00,39.9,-99.9,29.45,ENE,67,0.0,-999.0,-999,-99.99,,,-99.99,,2013-02-28 22:01:00,
2013-02-28 22:07:00,39.9,-99.9,29.45,NE,45,1.0,-999.0,-999,-99.99,,,-99.99,,2013-02-28 22:07:00,
2013-02-28 22:13:00,40.0,-99.9,29.45,ENE,67,0.0,-999.0,-999,-99.99,,,-99.99,,2013-02-28 22:13:00,
2013-02-28 22:19:00,40.0,-99.9,29.45,NNE,22,1.0,-999.0,-999,-99.99,,,-99.99,,2013-02-28 22:19:00,
2013-02-28 22:26:00,39.9,-99.9,29.45,East,90,2.0,-999.0,-999,-99.99,,,-99.99,,2013-02-28 22:26:00,
2013-02-28 22:32:00,39.9,-99.9,29.45,West,270,0.0,-999.0,-999,-99.99,,,-99.99,,2013-02-28 22:32:00,
2013-02-28 22:38:00,39.9,-99.9,29.45,NE,45,2.0,-999.0,-999,-99.99,,,-99.99,,2013-02-28 22:38:00,
2013-02-28 22:44:00,39.9,-99.9,29.45,NE,45,3.0,-999.0,-999,-99.99,,,-99.99,,2013-02-28 22:44:00,
2013-02-28 22:51:00,40.0,-99.9,29.45,ENE,67,6.0,-999.0,-999,-99.99,,,-99.99,,2013-02-28 22:51:00,
2013-02-28 22:57:00,40.1,-99.9,29.45,ENE,67,5.0,-999.0,-999,-99.99,,,-99.99,,2013-02-28 22:57:00,
2013-02-28 23:03:00,40.2,-99.9,29.45,ENE,67,6.0,-999.0,-999,-99.99,,,-99.99,,2013-02-28 23:03:00,
2013-02-28 23:09:00,40.4,-99.9,29.45,NE,45,3.0,-999.0,-999,-99.99,,,-99.99,,2013-02-28 23:09:00,
2013-02-28 23:16:00,40.5,-99.9,29.45,East,90,4.0,-999.0,-999,-99.99,,,-99.99,,2013-02-28 23:16:00,
2013-02-28 23:22:00,40.4,-99.9,29.45,ENE,67,4.0,-999.0,-999,-99.99,,,-99.99,,2013-02-28 23:22:00,
2013-02-28 23:28:00,40.5,-99.9,29.45,North,0,3.0,-999.0,-999,-99.99,,,-99.99,,2013-02-28 23:28:00,
2013-02-28 23:34:00,40.4,-99.9,29.45,ENE,67,4.0,-999.0,-999,-99.99,,,-99.99,,2013-02-28 23:34:00,
2013-02-28 23:40:00,40.4,-99.9,29.45,NE,45,5.0,-999.0,-999,-99.99,,,-99.99,,2013-02-28 23:40:00,
2013-02-28 23:47:00,40.4,-99.9,29.45,NNE,22,3.0,-999.0,-999,-99.99,,,-99.99,,2013-02-28 23:47:00,
2013-02-28 23:53:00,40.2,-99.9,29.45,ENE,67,3.0,-999.0,-999,-99.99,,,-99.99,,2013-02-28 23:53:00,
2013-02-28 23:59:00,40.1,-99.9,29.45,East,90,7.0,-999.0,-999,-99.99,,,-99.99,,2013-02-28 23:59:00,